Showing default

SIMSAT 2, 26366

Orbit data source: Space-Track

SIMSAT 2, 26366 is a payload satellite owned by Eurockot (CIS) in LEO that was launched on Tue, 16 May 2000 UTC via an ROKOT launch vehicle from the Plesetsk Missile And Space Complex (PKMTR). Payload-class satellites include a variety of spacecraft equipped with specific instruments for various scientific and technological missions. These include communications satellites like Starlink; space stations such as the ISS; scientific satellites like the Hubble; Earth observation satellites from companies like Planet Labs, Umbra, and HawkEye 360; GPS; miniature CubeSats for education and research; and military/defense satellites.

Loading next visibility...
Identifier
26366, 2000-026B
Orbit
LEO
Country
Flag of CISCIS
Related business
Manufacturer
Khrunichev
Mission
Commercial Technology
Bus & Motor
SIMSAT, Unknown motor
Mass
660 kg wet, 660 kg dry
Launch date (UTC)
2000-05-16 (26 years ago)
Launch vehicle
ROKOT
Launch site
Plesetsk Missile And Space Complex (PKMTR)
Object type
Payload
Rocket body
Debris
Shape & HBR
Box + 1 Arm, 1.8 m
Radar Cross Section
9.625 m², Large (>1 m²)

Expand to show TLE details & history
Last TLE update: 20 hours ago

TLE from 20 hours ago
0 SIMSAT 2
1 26366U 00026B   26125.06276021  .00002171  00000-0  74870-4 0  9992
2 26366  86.3449 148.7971 0008728  75.5956 284.6260 15.29323880436628
Epoch: 2026-05-05T01:30Z
TLE epoch observation values (Epoch: 2026-05-05T01:30:22.482Z)
Latitude
-0.00003°
Longitude
-96.73957°
Altitude
479.51 km
Speed
7.627 km/s
True Right ascension
09h 55m 11s
True Declination
0° 00' 00"
Sunlit
Object was in daylight at epoch
Visualization orbit readout
Latitude
Unknown
Longitude
Unknown
Altitude
Unknown
Speed
Unknown
Apparent Right ascension
Unknown
Apparent Declination
Unknown
Sunlit
N/A
Visualization observer readout
Local Sidereal Time
05:19:53
Azimuth
Unknown
Elevation
Unknown
Doppler factor
Unknown
Orbital elements
Apogee altitude
480.646 km
Perigee altitude
468.684 km
Semi-major axis
6,852.802 km
Eccentricity
0.00087
Inclination
86.3449°
RAAN
148.7971°
Arg. of periapsis
75.5956°
True anomaly
284.5292°
Mean anomaly
284.626°
Eccentric anomaly
284.5776°
Mean motion
3.82596 °/min
Orbital period
94.09 mins
BSTAR
0.00007487
Loading maneuver chart data...
Computing Atmospheric mass density...
Loading historical data...
Loading historical data...
Loading historical data...
Loading historical data...
Loading historical data...
Loading historical data...
Loading historical data...
Other satellites on launch #26 in the year 2000 (2000-05-16 UTC)

Documentation

Showing up to 5 results
|